[[{"header":{"parameterUnit":"m.s-1","parameterCategory":1,"la1":30.2991,"la2":30.254,"lo1":-89.0895,"lo2":-89.0444,"dy":0.0017,"dx":0.0017,"nx":28,"ny":28,"refTime":"2025-08-17T03:00:00:Z","depth":0,"parameterNumber":2,"parameterNumberName":"U-component_of_WINDS"},"data":[0,0,0,0,0,0,0,0,0,0,0,0,0,0,0,0,0,0,0,0,0,0,0,0,0,0,0,0,0,0,0,0,0,0,0,0,0,0,0,0,0,0,0,0,0,0,0,0,0,0,0,0,0,0,0,0,0,0,0.5928,0.5929,0,0.5993,0.5994,0.5995,0.6029,0.6029,0.6029,0.6029,0.6096,0.6097,0.6099,0,0,0,0,0,0,0,0,0,0,0,0,0,0.5834,0.5835,0.5928,0.5929,0.593,0.5993,0.5994,0.5995,0.6029,0.6029,0.6029,0.6029,0.6095,0.6097,0.6099,0,0,0,0,0,0,0,0,0,0,0,0,0,0.5884,0.5836,0.5928,0.5954,0.5957,0.5993,0.5994,0.5995,0.6029,0.6029,0.6029,0.6029,0.6094,0.6097,0.6099,0.6114,0,0,0.6107,0.6108,0,0,0,0,0,0,0,0,0.5881,0.5888,0.595,0.5953,0.5956,0.6003,0.5985,0.6035,0.6029,0.6002,0.6029,0.6029,0.6065,0.607,0.6082,0.6117,0.612,0.6107,0.6109,0.611,0.6111,0,0,0,0,0,0,0,0.5878,0.5885,0.5954,0.595,0.5954,0.5963,0.5971,0.5995,0.6032,0.6004,0.6007,0.6014,0.6067,0.6079,0.6084,0.6121,0.6107,0.611,0.6111,0.6112,0.6173,0.6173,0,0,0,0,0,0,0.587,0.5882,0.5952,0.5956,0.5918,0.5965,0.5973,0.5988,0.6032,0.6039,0.6014,0.6016,0.6075,0.6081,0.6086,0.6107,0.611,0.6113,0.6114,0.6173,0.6173,0.6173,0,0,0,0,0,0,0.5868,0.5876,0.5949,0.592,0.593,0.5966,0.5983,0.5989,0.6002,0.6039,0.6046,0.602,0.6075,0.6082,0.6107,0.611,0.6114,0.6116,0.6173,0.6173,0.6173,0.6148,0,0,0,0,0,0,0.5865,0.5875,0.588,0.592,0.5931,0.5969,0.5983,0.599,0.6006,0.6009,0.6047,0.6053,0.6076,0.6103,0.611,0.6114,0.6118,0.6173,0.6173,0.6173,0.6149,0.6148,0.6146,0,0,0,0,0,0.5862,0.587,0.588,0.5889,0.5939,0.5969,0.5975,0.6001,0.6006,0.6013,0.6037,0.6052,0.6109,0.6105,0.6113,0.6118,0.6173,0.6173,0.6173,0.615,0.6148,0.6146,0,0,0,0,0,0,0.5829,0.5876,0.5888,0.5909,0.5935,0.5974,0.5983,0.5998,0.6023,0.6024,0.6055,0.6064,0.6086,0.6104,0.61,0.6135,0.6142,0.6144,0.6122,0.6121,0.6119,0.6114,0.612,0,0,0,0,0,0.5825,0.5845,0.5885,0.59,0.5912,0.5945,0.5959,0.5977,0.6005,0.6016,0.6042,0.6069,0.6093,0.6108,0.6132,0.6152,0.6162,0.6159,0.6158,0.6157,0.6158,0.6172,0.6172,0.6174,0.6174,0.6174,0,0,0.5815,0.5843,0.5854,0.5894,0.5916,0.5937,0.5954,0.5975,0.5991,0.6019,0.6044,0.6065,0.6097,0.612,0.6131,0.6136,0.616,0.6157,0.6156,0.6157,0.6172,0.6172,0.6172,0.6174,0.6174,0.6174,0,0,0.5809,0.5832,0.5848,0.587,0.5904,0.5926,0.593,0.5968,0.5983,0.6009,0.6031,0.6051,0.6091,0.6113,0.613,0.6135,0.615,0.6142,0.6135,0.6148,0.6148,0.6148,0.6151,0.6152,0.6143,0.6143,0.6143,0,0.5793,0.5825,0.5854,0.5874,0.5892,0.5919,0.5937,0.5957,0.5996,0.6008,0.6013,0.6066,0.6089,0.6119,0.612,0.6132,0.6139,0.6138,0.6146,0.6146,0.6147,0.615,0.6151,0.6142,0.6142,0.6142,0.6142,0,0.5805,0.5827,0.5836,0.5875,0.5893,0.5912,0.5944,0.5959,0.5977,0.5999,0.6026,0.6055,0.6087,0.6095,0.6111,0.6128,0.613,0.614,0.6148,0.6145,0.6149,0.615,0.614,0.6141,0.6141,0.6141,0,0,0.5778,0.5834,0.5837,0.5856,0.5896,0.5914,0.5935,0.5966,0.598,0.6007,0.6025,0.606,0.6071,0.6089,0.6109,0.6121,0.6125,0.613,0.6131,0.6129,0.6147,0.6139,0.614,0.6136,0.6136,0.6136,0.6144,0,0.5778,0.5816,0.5844,0.5872,0.5894,0.5921,0.594,0.5967,0.5989,0.6011,0.6035,0.606,0.6071,0.6083,0.6096,0.6121,0.6129,0.6121,0.6154,0.6155,0.6145,0.6142,0.6134,0.614,0.6146,0.6146,0.6146,0,0.5782,0.581,0.584,0.588,0.5891,0.5906,0.5939,0.5959,0.5992,0.6007,0.6029,0.605,0.6074,0.608,0.6115,0.6109,0.6124,0.6139,0.614,0.6144,0.615,0.6146,0.6142,0.6143,0.6149,0.6148,0.6148,0,0.5761,0.5806,0.583,0.5845,0.5892,0.5903,0.5923,0.5956,0.5974,0.6002,0.6014,0.6045,0.6062,0.6085,0.6114,0.6116,0.6146,0.6154,0.616,0.6159,0.6165,0.6164,0.6164,0.6174,0.6174,0.6174,0.6174,0,0.5758,0.5776,0.5822,0.5836,0.5858,0.589,0.591,0.5933,0.5962,0.5983,0.6008,0.6027,0.6064,0.6088,0.611,0.6136,0.6143,0.6157,0.6163,0.6155,0.6153,0.6165,0.6166,0.6174,0.6174,0.6174,0.6174,0,0.5738,0.5769,0.5798,0.5841,0.5852,0.5866,0.5903,0.592,0.5944,0.597,0.5978,0.6015,0.6045,0.6076,0.6116,0.6131,0.6157,0.6165,0.6146,0.6149,0.6154,0.6153,0.6161,0.6165,0.6172,0.6172,0.6172,0,0.5734,0.5749,0.5794,0.581,0.583,0.5855,0.5874,0.5907,0.5925,0.5965,0.5976,0.6008,0.6035,0.6081,0.6113,0.6144,0.6153,0.6154,0.6158,0.615,0.6154,0.6153,0.6156,0.6152,0.6152,0.6152,0.6152,0,0.5724,0.574,0.5766,0.5798,0.5821,0.5847,0.5875,0.5887,0.5926,0.5946,0.5977,0.5998,0.604,0.6071,0.6107,0.6128,0.6147,0.615,0.6154,0.6146,0.6135,0.6142,0.6143,0.615,0.615,0.615,0.615,0.615,0.5713,0.5728,0.5763,0.5792,0.5817,0.5843,0.5861,0.5888,0.5914,0.5951,0.5969,0.6001,0.6035,0.6085,0.6106,0.6132,0.6137,0.6141,0.6142,0.6143,0.6142,0.6131,0.6138,0.6138,0.6138,0.6138,0.6138,0,0.5705,0.573,0.5756,0.5795,0.5819,0.5835,0.5867,0.5886,0.5913,0.5944,0.5971,0.6007,0.6039,0.6073,0.6107,0.6121,0.6131,0.6129,0.6128,0.6134,0.6134,0.6129,0.6121,0.6121,0.6121,0.6121,0.6121,0.6121,0.5704,0.5731,0.5751,0.5791,0.5815,0.5847,0.5864,0.5889,0.5914,0.5954,0.598,0.6003,0.6036,0.6073,0.6103,0.6112,0.6124,0.612,0.6132,0.6132,0.6133,0.6134,0.6129,0.6122,0.6122,0.6129,0.6129,0.6129]},{"header":{"parameterUnit":"m.s-1","parameterCategory":1,"la1":30.2991,"la2":30.254,"lo1":-89.0895,"lo2":-89.0444,"dy":0.0017,"dx":0.0017,"nx":28,"ny":28,"refTime":"2025-08-17T03:00:00:Z","depth":0,"parameterNumber":3,"parameterNumberName":"V-component_of_WINDS"},"data":[0,0,0,0,0,0,0,0,0,0,0,0,0,0,0,0,0,0,0,0,0,0,0,0,0,0,0,0,0,0,0,0,0,0,0,0,0,0,0,0,0,0,0,0,0,0,0,0,0,0,0,0,0,0,0,0,0,0,-1.8258,-1.8259,0,-1.8349,-1.835,-1.8351,-1.8375,-1.8375,-1.8374,-1.8374,-1.8468,-1.847,-1.8473,0,0,0,0,0,0,0,0,0,0,0,0,0,-1.8105,-1.8108,-1.8258,-1.8259,-1.826,-1.8349,-1.835,-1.8352,-1.8375,-1.8375,-1.8374,-1.8373,-1.8467,-1.847,-1.8474,0,0,0,0,0,0,0,0,0,0,0,0,0,-1.8182,-1.8109,-1.8258,-1.8283,-1.8286,-1.8349,-1.835,-1.8352,-1.8376,-1.8375,-1.8374,-1.8373,-1.8465,-1.847,-1.8474,-1.8519,0,0,-1.8488,-1.849,0,0,0,0,0,0,0,0,-1.8177,-1.8187,-1.8278,-1.8281,-1.8285,-1.835,-1.8331,-1.8408,-1.8376,-1.8342,-1.8374,-1.8373,-1.8429,-1.8437,-1.8456,-1.8523,-1.8527,-1.8488,-1.8491,-1.8493,-1.8494,0,0,0,0,0,0,0,-1.8172,-1.8183,-1.8294,-1.8279,-1.8284,-1.829,-1.83,-1.8346,-1.8389,-1.8344,-1.8346,-1.8357,-1.8431,-1.8451,-1.8458,-1.8529,-1.8488,-1.8492,-1.8495,-1.8497,-1.8637,-1.8638,0,0,0,0,0,0,-1.8162,-1.8179,-1.8291,-1.8297,-1.8228,-1.8293,-1.8304,-1.833,-1.8388,-1.8397,-1.8357,-1.8358,-1.8444,-1.8453,-1.8461,-1.8517,-1.8493,-1.8497,-1.85,-1.8636,-1.8637,-1.8638,0,0,0,0,0,0,-1.8159,-1.8172,-1.8288,-1.8238,-1.8254,-1.8297,-1.8325,-1.8332,-1.8352,-1.8398,-1.8406,-1.837,-1.8443,-1.8455,-1.8504,-1.852,-1.8499,-1.8504,-1.8634,-1.8636,-1.8637,-1.8628,0,0,0,0,0,0,-1.8154,-1.8171,-1.8188,-1.8239,-1.8256,-1.8329,-1.8326,-1.8335,-1.836,-1.8361,-1.8412,-1.842,-1.8444,-1.8497,-1.8509,-1.8526,-1.8507,-1.8633,-1.8635,-1.8637,-1.8627,-1.8629,-1.863,0,0,0,0,0,-1.8149,-1.8182,-1.8189,-1.8202,-1.8279,-1.833,-1.834,-1.8366,-1.8361,-1.8379,-1.8408,-1.8418,-1.8517,-1.8502,-1.8515,-1.8534,-1.8632,-1.8635,-1.8637,-1.8626,-1.8628,-1.863,0,0,0,0,0,0,-1.8133,-1.8189,-1.8197,-1.8248,-1.8284,-1.8333,-1.8357,-1.8368,-1.8406,-1.8406,-1.8437,-1.8448,-1.8495,-1.852,-1.8502,-1.858,-1.8575,-1.858,-1.8562,-1.8565,-1.8566,-1.8559,-1.8511,0,0,0,0,0,-1.8135,-1.8171,-1.8219,-1.8259,-1.8276,-1.8313,-1.8337,-1.8354,-1.8392,-1.8408,-1.8441,-1.8478,-1.8517,-1.8542,-1.8581,-1.8631,-1.8642,-1.865,-1.8652,-1.8653,-1.8657,-1.8684,-1.8688,-1.8645,-1.8645,-1.8645,0,0,-1.814,-1.8175,-1.8196,-1.8256,-1.8286,-1.8323,-1.8326,-1.8365,-1.8393,-1.8414,-1.8462,-1.8487,-1.8531,-1.858,-1.8604,-1.8602,-1.8671,-1.8656,-1.8657,-1.866,-1.8687,-1.8691,-1.8695,-1.8647,-1.8647,-1.8646,0,0,-1.8168,-1.8198,-1.8234,-1.8264,-1.8309,-1.8333,-1.8342,-1.839,-1.8408,-1.8457,-1.8473,-1.8507,-1.8574,-1.8604,-1.8628,-1.8667,-1.8677,-1.8679,-1.8688,-1.8714,-1.8717,-1.8721,-1.8734,-1.8738,-1.8682,-1.8682,-1.8682,0,-1.8168,-1.8224,-1.8252,-1.829,-1.8316,-1.8336,-1.8373,-1.84,-1.8456,-1.8473,-1.8471,-1.8555,-1.8586,-1.8642,-1.8651,-1.8671,-1.8681,-1.8673,-1.8715,-1.8718,-1.8722,-1.8734,-1.8739,-1.8682,-1.8682,-1.8682,-1.8682,0,-1.8222,-1.8261,-1.8285,-1.8337,-1.8366,-1.8403,-1.8436,-1.8462,-1.8477,-1.8501,-1.855,-1.8588,-1.8634,-1.8649,-1.8664,-1.8708,-1.8705,-1.8708,-1.8704,-1.8725,-1.8737,-1.8743,-1.8682,-1.8682,-1.8682,-1.8682,0,0,-1.8242,-1.8309,-1.8317,-1.8341,-1.8392,-1.8422,-1.846,-1.8505,-1.8526,-1.8564,-1.8596,-1.8653,-1.8656,-1.8683,-1.8702,-1.8725,-1.8752,-1.8726,-1.8727,-1.8728,-1.8802,-1.8798,-1.8803,-1.876,-1.8761,-1.8762,-1.8798,0,-1.8275,-1.8344,-1.8369,-1.8425,-1.8461,-1.8481,-1.8514,-1.8549,-1.8573,-1.8607,-1.8634,-1.8673,-1.8674,-1.8691,-1.8715,-1.8744,-1.8767,-1.8742,-1.879,-1.8791,-1.8777,-1.881,-1.8807,-1.8839,-1.8803,-1.8804,-1.8804,0,-1.8324,-1.8361,-1.842,-1.8466,-1.8482,-1.8511,-1.8554,-1.8587,-1.8627,-1.8642,-1.8673,-1.869,-1.873,-1.8724,-1.878,-1.8762,-1.8783,-1.8801,-1.8802,-1.8807,-1.8798,-1.8815,-1.885,-1.8854,-1.8812,-1.8812,-1.8811,0,-1.8331,-1.8396,-1.844,-1.8459,-1.8514,-1.8534,-1.8558,-1.8597,-1.8623,-1.866,-1.8677,-1.8719,-1.8742,-1.8774,-1.8802,-1.8795,-1.8856,-1.8852,-1.887,-1.8869,-1.8881,-1.888,-1.8919,-1.8896,-1.8896,-1.8896,-1.8896,0,-1.8365,-1.84,-1.8443,-1.847,-1.851,-1.854,-1.8579,-1.8604,-1.8638,-1.867,-1.8691,-1.872,-1.8756,-1.879,-1.8813,-1.8855,-1.8866,-1.888,-1.8885,-1.8877,-1.8876,-1.8891,-1.8889,-1.8897,-1.8897,-1.8897,-1.8897,0,-1.8379,-1.841,-1.8459,-1.8506,-1.8519,-1.8546,-1.8588,-1.8614,-1.8639,-1.8679,-1.8691,-1.873,-1.8771,-1.8803,-1.8857,-1.8872,-1.8917,-1.8923,-1.8903,-1.8906,-1.8922,-1.8919,-1.8972,-1.898,-1.8952,-1.8952,-1.8953,0,-1.8399,-1.8426,-1.8476,-1.8499,-1.8523,-1.8559,-1.8585,-1.8615,-1.8641,-1.8688,-1.8709,-1.8752,-1.8787,-1.8853,-1.8886,-1.8927,-1.8934,-1.8949,-1.894,-1.8932,-1.8933,-1.8931,-1.8933,-1.895,-1.895,-1.8951,-1.8951,0,-1.8429,-1.8443,-1.8479,-1.852,-1.855,-1.8584,-1.8618,-1.8635,-1.8672,-1.87,-1.8742,-1.877,-1.8825,-1.8867,-1.8911,-1.8936,-1.8949,-1.8953,-1.896,-1.8952,-1.8939,-1.8945,-1.8905,-1.8952,-1.8952,-1.8952,-1.8952,-1.8952,-1.8446,-1.8471,-1.851,-1.8549,-1.8578,-1.861,-1.8637,-1.8665,-1.8701,-1.8747,-1.8763,-1.8807,-1.8846,-1.8907,-1.8932,-1.8967,-1.8967,-1.8976,-1.8978,-1.898,-1.8979,-1.8934,-1.8975,-1.8975,-1.8975,-1.8975,-1.8975,0,-1.8477,-1.8503,-1.8539,-1.8586,-1.8617,-1.8626,-1.8665,-1.869,-1.8728,-1.8763,-1.8797,-1.8846,-1.8887,-1.8923,-1.8966,-1.8986,-1.8993,-1.8996,-1.8995,-1.9,-1.8977,-1.8967,-1.899,-1.899,-1.899,-1.899,-1.899,-1.899,-1.8497,-1.8539,-1.8557,-1.8614,-1.864,-1.8683,-1.8704,-1.8733,-1.8761,-1.8814,-1.8847,-1.8871,-1.8907,-1.8952,-1.899,-1.8999,-1.9014,-1.9015,-1.9026,-1.9004,-1.9002,-1.9,-1.899,-1.9018,-1.9018,-1.9046,-1.9047,-1.9047]}]]